Weather History for Brownsville, TX

Change the Weather History Date:

Thursday, February 7, 2013

  Actual Average Record
Temperature  
Mean Temperature 76 °F 63 °F  
Max Temperature 85 °F 73 °F 85 °F (2013)
Min Temperature 66 °F 54 °F 27 °F (1895)
Degree Days  
Heating Degree Days 0 5  
Month to date heating degree days 1 35  
Since 1 July heating degree days 257 434  
Cooling Degree Days 11 3  
Month to date cooling degree days 50 16  
Year to date cooling degree days 124 75  
Growing Degree Days 25 (Base 50)    
Moisture  
Dew Point 68 °F    
Average Humidity 78    
Maximum Humidity 100    
Minimum Humidity 55    
Precipitation  
Precipitation 0.00 in 0.05 in 0.54 in (1978)
Month to date precipitation T 0.34  
Year to date precipitation 1.47 1.61  
Sea Level Pressure  
Sea Level Pressure 29.91 in    
Wind  
Wind Speed 4 mph (NE)    
Max Wind Speed 16 mph    
Max Gust Speed 20 mph    
Visibility 4 miles    
Events Fog    
T = Trace of Precipitation, MM = Missing Value Source: NWS Daily Summary

Daily Weather History Graph

Daily Weather History Graph

Search for Another Location

Airport:

Trip Planner

Search our weather history database for the weather conditions in past years. The results will help you decide how hot, cold, wet, or windy it might be!

Date:

Astronomy

Feb. 07, 2013 Rise Set
Actual Time 7:10 AM CST 6:17 PM CST
Civil Twilight 6:46 AM CST 6:41 PM CST
Nautical Twilight 6:19 AM CST 7:08 PM CST
Astronomical Twilight 5:52 AM CST 7:36 PM CST
Moon 4:42 AM CST (2/7) 3:51 PM CST (2/7)
Length of Visible Light 11h 55m
Length of Day
11h 07m
Waning Crescent, 9% of the Moon is Illuminated
Feb 7
Waning Crescent
Feb 10
New
Feb 17
First Quarter
Feb 25
Full
Mar 4
Last Quarter

Hourly Weather History & Observations

Time (CST) Temp. Heat Index Dew Point Humidity Pressure Visibility Wind Dir Wind Speed Gust Speed Precip Events Conditions
12:04 AM 68.0 °F - 68.0 °F 100% 29.87 in 2.5 mi Calm Calm - N/A   Mostly Cloudy
12:10 AM 68.0 °F - 68.0 °F 100% 29.87 in 1.5 mi Calm Calm - N/A   Mostly Cloudy
12:17 AM 68.0 °F - 68.0 °F 100% 29.87 in 1.0 mi Calm Calm - N/A   Mist
12:32 AM 66.2 °F - 66.2 °F 100% 29.87 in 3.0 mi North 3.5 mph - N/A   Mostly Cloudy
12:41 AM 66.2 °F - 66.2 °F 100% 29.87 in 3.0 mi Calm Calm - N/A   Scattered Clouds
12:48 AM 66.2 °F - 66.2 °F 100% 29.87 in 2.0 mi Calm Calm - N/A   Partly Cloudy
12:53 AM 66.9 °F - 66.9 °F 100% 29.87 in 1.5 mi Calm Calm - N/A   Scattered Clouds
12:58 AM 66.2 °F - 66.2 °F 100% 29.88 in 0.8 mi Calm Calm - N/A   Mist
1:05 AM 66.2 °F - 66.2 °F 100% 29.88 in 1.0 mi Calm Calm - N/A   Mist
1:12 AM 66.2 °F - 66.2 °F 100% 29.87 in 0.8 mi Calm Calm - N/A   Mist
1:24 AM 66.2 °F - 66.2 °F 100% 29.88 in 0.2 mi Calm Calm - N/A Fog Fog
1:43 AM 66.2 °F - 66.2 °F 100% 29.88 in 0.8 mi Calm Calm - N/A   Mist
1:53 AM 66.9 °F - 66.9 °F 100% 29.88 in 0.8 mi Calm Calm - N/A   Mist
2:04 AM 68.0 °F - 66.2 °F 94% 29.88 in 1.5 mi NNE 3.5 mph - N/A   Overcast
2:14 AM 68.0 °F - 66.2 °F 94% 29.88 in 2.0 mi NNE 3.5 mph - N/A   Overcast
2:33 AM 69.8 °F - 68.0 °F 94% 29.88 in 3.0 mi Calm Calm - N/A   Overcast
2:53 AM 69.1 °F - 68.0 °F 96% 29.87 in 2.5 mi NNE 4.6 mph - N/A   Overcast
3:12 AM 69.8 °F - 68.0 °F 94% 29.87 in 1.5 mi NNE 4.6 mph - N/A   Overcast
3:42 AM 69.8 °F - 69.8 °F 100% 29.87 in 0.8 mi NE 4.6 mph - N/A   Mist
3:53 AM 69.1 °F - 69.1 °F 100% 29.86 in 0.5 mi NNE 3.5 mph - N/A Fog Fog
4:05 AM 69.8 °F - 69.8 °F 100% 29.87 in 0.5 mi NE 4.6 mph - N/A Fog Fog
4:26 AM 69.8 °F - 69.8 °F 100% 29.87 in 0.8 mi NE 3.5 mph - N/A   Mist
4:42 AM 69.8 °F - 69.8 °F 100% 29.87 in 1.0 mi NE 3.5 mph - N/A   Mist
4:53 AM 70.0 °F - 70.0 °F 100% 29.86 in 1.0 mi NE 3.5 mph - N/A   Mist
5:21 AM 69.8 °F - 69.8 °F 100% 29.87 in 2.5 mi Calm Calm - N/A   Overcast
5:28 AM 69.8 °F - 69.8 °F 100% 29.87 in 3.0 mi ENE 3.5 mph - N/A   Overcast
5:53 AM 70.0 °F - 70.0 °F 100% 29.87 in 3.0 mi NE 3.5 mph - N/A   Overcast
6:05 AM 69.8 °F - 69.8 °F 100% 29.87 in 3.0 mi NE 3.5 mph - N/A   Overcast
6:30 AM 69.8 °F - 69.8 °F 100% 29.88 in 1.8 mi Calm Calm - N/A   Overcast
6:39 AM 69.8 °F - 69.8 °F 100% 29.88 in 1.2 mi Calm Calm - N/A   Overcast
6:53 AM 70.0 °F - 70.0 °F 100% 29.88 in 1.2 mi Calm Calm - N/A   Overcast
7:25 AM 69.8 °F - 69.8 °F 100% 29.89 in 0.5 mi Calm Calm - N/A Fog Fog
7:53 AM 70.0 °F - 70.0 °F 100% 29.90 in 0.2 mi NE 3.5 mph - N/A Fog Fog
8:03 AM 69.8 °F - 69.8 °F 100% 29.91 in 0.5 mi Calm Calm - N/A Fog Fog
8:12 AM 71.6 °F - 69.8 °F 94% 29.91 in 2.0 mi NE 3.5 mph - N/A   Overcast
8:22 AM 71.6 °F - 69.8 °F 94% 29.91 in 3.0 mi Calm Calm - N/A   Overcast
8:53 AM 71.1 °F - 71.1 °F 100% 29.92 in 4.0 mi Calm Calm - N/A   Overcast
9:48 AM 71.6 °F - 71.6 °F 100% 29.94 in 1.0 mi East 3.5 mph - N/A   Overcast
9:53 AM 72.0 °F - 71.1 °F 97% 29.94 in 1.0 mi NE 3.5 mph - N/A   Overcast
10:16 AM 73.4 °F - 71.6 °F 94% 29.94 in 3.0 mi NNE 4.6 mph - N/A   Overcast
10:48 AM 75.2 °F - 71.6 °F 89% 29.94 in 9.0 mi Calm Calm - N/A   Overcast
10:53 AM 75.0 °F - 70.0 °F 84% 29.94 in 9.0 mi Calm Calm - N/A   Overcast
11:02 AM 75.2 °F - 69.8 °F 83% 29.94 in 9.0 mi Calm Calm - N/A   Overcast
11:12 AM 75.2 °F - 69.8 °F 83% 29.95 in 10.0 mi North 3.5 mph - N/A   Overcast
11:26 AM 75.2 °F - 69.8 °F 83% 29.95 in 10.0 mi North 3.5 mph - N/A   Overcast
11:53 AM 78.1 °F - 70.0 °F 76% 29.94 in 10.0 mi Calm Calm - N/A   Overcast
12:00 PM 78.8 °F - 69.8 °F 74% 29.94 in 10.0 mi North 4.6 mph - N/A   Overcast
12:53 PM 80.1 °F 82.7 °F 68.0 °F 67% 29.92 in 10.0 mi WNW 6.9 mph - N/A   Overcast
1:30 PM 80.6 °F 82.7 °F 66.2 °F 61% 29.90 in 10.0 mi NE 5.8 mph - N/A   Overcast
1:42 PM 80.6 °F 82.7 °F 66.2 °F 61% 29.90 in 10.0 mi NNW 4.6 mph - N/A   Overcast
1:53 PM 80.1 °F 82.3 °F 66.9 °F 64% 29.89 in 10.0 mi Variable 3.5 mph - N/A   Overcast
2:53 PM 84.9 °F 87.6 °F 66.9 °F 55% 29.87 in 10.0 mi ENE 8.1 mph - N/A   Mostly Cloudy
3:53 PM 82.0 °F 85.5 °F 69.1 °F 65% 29.87 in 10.0 mi NE 6.9 mph - N/A   Mostly Cloudy
4:53 PM 79.0 °F - 68.0 °F 69% 29.88 in 10.0 mi ENE 13.8 mph - N/A   Clear
5:53 PM 73.9 °F - 68.0 °F 82% 29.89 in 10.0 mi NE 11.5 mph - N/A   Clear
6:53 PM 71.1 °F - 68.0 °F 90% 29.91 in 10.0 mi ENE 9.2 mph - N/A   Clear
7:25 PM 69.8 °F - 68.0 °F 94% 29.92 in 10.0 mi NE 8.1 mph - N/A   Scattered Clouds
7:34 PM 69.8 °F - 68.0 °F 94% 29.93 in 10.0 mi ENE 8.1 mph - N/A   Mostly Cloudy
7:53 PM 70.0 °F - 68.0 °F 93% 29.94 in 9.0 mi NNE 8.1 mph - N/A   Overcast
8:14 PM 69.8 °F - 68.0 °F 94% 29.95 in 4.0 mi East 8.1 mph - N/A   Overcast
8:53 PM 68.0 °F - 68.0 °F 100% 29.97 in 8.0 mi NE 4.6 mph - N/A   Mostly Cloudy
9:06 PM 68.0 °F - 66.2 °F 94% 29.97 in 7.0 mi NE 4.6 mph - N/A   Scattered Clouds
9:14 PM 68.0 °F - 66.2 °F 94% 29.98 in 6.0 mi NE 4.6 mph - N/A   Mostly Cloudy
9:37 PM 69.8 °F - 68.0 °F 94% 29.99 in 8.0 mi NE 3.5 mph - N/A   Overcast
9:53 PM 68.0 °F - 66.9 °F 96% 29.99 in 9.0 mi NE 4.6 mph - N/A   Overcast
10:05 PM 68.0 °F - 66.2 °F 94% 30.00 in 8.0 mi NE 4.6 mph - N/A   Overcast
10:31 PM 68.0 °F - 66.2 °F 94% 30.00 in 7.0 mi Calm Calm - N/A   Overcast
10:53 PM 68.0 °F - 66.9 °F 96% 29.99 in 5.0 mi Calm Calm - N/A   Scattered Clouds
11:36 PM 66.2 °F - 66.2 °F 100% 29.99 in 2.0 mi Calm Calm - N/A   Mostly Cloudy
11:40 PM 66.2 °F - 66.2 °F 100% 29.98 in 1.0 mi NNE 3.5 mph - N/A   Mist
11:53 PM 66.9 °F - 66.0 °F 97% 29.98 in 0.8 mi North 3.5 mph - N/A   Mist